When you browse on this site, cookies collect data to enhance your experience and personalize the content and advertising you see.
Visit our Privacy Policy to learn more. By continuing to use the site, you agree to this use of cookies and data.
  • In United Kingdom
  • List of Countries
  • For 7 days
  • Water Temperature
  • Weather Map
  • Weather Widgets
  • user-avatar
    Login

    Hourly Weather Oksford

    Today, 26 February, Wednesday

    Time Temperature Precipitation Wind Pressure Humidity
    00:00 -2°C° 0 mm 7 mps 742 mmHg 88%
    01:00 -2°C° 0 mm 7 mps 742 mmHg 88%
    02:00 -2°C° 0 mm 6 mps 743 mmHg 87%
    03:00 -2°C° 0 mm 5 mps 743 mmHg 86%
    04:00 -3°C° 0 mm 6 mps 743 mmHg 87%
    05:00 -2°C° 0 mm 6 mps 744 mmHg 88%
    06:00 -2°C° 0 mm 6 mps 744 mmHg 89%
    07:00 -1°C° 0 mm 6 mps 745 mmHg 87%
    08:00 -1°C° 0 mm 7 mps 746 mmHg 85%
    09:00 0°C° 0 mm 8 mps 747 mmHg 82%
    10:00 +1°C° 0.1 mm 8 mps 747 mmHg 79%
    11:00 +2°C° 0.1 mm 9 mps 748 mmHg 76%
    12:00 +3°C° 0.1 mm 9 mps 748 mmHg 73%
    13:00 +3°C° 0.1 mm 9 mps 749 mmHg 70%
    14:00 +4°C° 0.1 mm 8 mps 749 mmHg 67%
    15:00 +4°C° 0.1 mm 8 mps 750 mmHg 63%
    16:00 +2°C° 0 mm 7 mps 750 mmHg 68%
    17:00 +1°C° 0 mm 5 mps 750 mmHg 72%
    18:00 0°C° 0 mm 4 mps 750 mmHg 77%
    19:00 0°C° 0 mm 4 mps 750 mmHg 79%
    20:00 0°C° 0 mm 4 mps 750 mmHg 81%
    21:00 0°C° 0 mm 3 mps 750 mmHg 84%
    22:00 0°C° 0 mm 4 mps 749 mmHg 83%
    23:00 0°C° 0 mm 4 mps 749 mmHg 83%

    Tomorrow, 27 February, Thursday

    Time Temperature Precipitation Wind Pressure Humidity
    00:00 0°C° 0 mm 4 mps 748 mmHg 82%
    01:00 0°C° 0.2 mm 4 mps 747 mmHg 87%
    02:00 0°C° 0.2 mm 4 mps 745 mmHg 92%
    03:00 0°C° 0.2 mm 4 mps 743 mmHg 96%
    04:00 +1°C° 1.5 mm 5 mps 742 mmHg 97%
    05:00 +1°C° 1.5 mm 5 mps 740 mmHg 97%
    06:00 +1°C° 1.5 mm 6 mps 738 mmHg 97%
    07:00 +1°C° 1.9 mm 6 mps 737 mmHg 97%
    08:00 +1°C° 1.9 mm 5 mps 736 mmHg 98%
    09:00 +1°C° 1.9 mm 5 mps 735 mmHg 98%
    10:00 -1°C° 0.3 mm 7 mps 737 mmHg 97%
    11:00 -1°C° 0.3 mm 8 mps 738 mmHg 96%
    12:00 -2°C° 0.3 mm 10 mps 740 mmHg 95%
    13:00 0°C° 0 mm 10 mps 742 mmHg 89%
    14:00 +1°C° 0 mm 10 mps 744 mmHg 84%
    15:00 +1°C° 0 mm 10 mps 745 mmHg 78%
    16:00 +1°C° 0 mm 8 mps 747 mmHg 80%
    17:00 0°C° 0 mm 7 mps 748 mmHg 81%
    18:00 -1°C° 0 mm 6 mps 749 mmHg 82%
    19:00 0°C° 0 mm 5 mps 750 mmHg 84%
    20:00 -1°C° 0 mm 5 mps 751 mmHg 85%
    21:00 -1°C° 0 mm 5 mps 752 mmHg 86%
    22:00 -1°C° 0 mm 5 mps 752 mmHg 86%
    23:00 -1°C° 0 mm 4 mps 753 mmHg 87%

    Day after tomorrow, 28 February, Friday

    Time Temperature Precipitation Wind Pressure Humidity
    00:00 -1°C° 0 mm 4 mps 753 mmHg 88%
    01:00 0°C° 0 mm 3 mps 753 mmHg 88%
    02:00 0°C° 0 mm 3 mps 753 mmHg 88%
    03:00 0°C° 0 mm 3 mps 753 mmHg 88%
    04:00 0°C° 0 mm 3 mps 753 mmHg 89%
    05:00 0°C° 0 mm 3 mps 752 mmHg 89%
    06:00 +1°C° 0 mm 3 mps 752 mmHg 89%
    07:00 +1°C° 0.1 mm 3 mps 752 mmHg 89%
    08:00 +1°C° 0.1 mm 4 mps 751 mmHg 89%
    09:00 +3°C° 0.1 mm 4 mps 751 mmHg 88%
    10:00 +2°C° 0.2 mm 5 mps 750 mmHg 91%
    11:00 +2°C° 0.2 mm 5 mps 750 mmHg 93%
    12:00 +1°C° 0.2 mm 6 mps 749 mmHg 96%
    13:00 +2°C° 0.6 mm 6 mps 748 mmHg 96%
    14:00 +2°C° 0.6 mm 6 mps 747 mmHg 96%
    15:00 +2°C° 0.6 mm 6 mps 746 mmHg 96%
    16:00 +2°C° 0.3 mm 5 mps 745 mmHg 97%
    17:00 +4°C° 0.3 mm 4 mps 744 mmHg 97%
    18:00 +4°C° 0.3 mm 3 mps 743 mmHg 98%
    19:00 +5°C° 0.5 mm 4 mps 743 mmHg 97%
    20:00 +7°C° 0.5 mm 5 mps 742 mmHg 97%
    21:00 +8°C° 0.5 mm 5 mps 741 mmHg 96%
    22:00 +8°C° 0.4 mm 6 mps 741 mmHg 96%
    23:00 +8°C° 0.4 mm 7 mps 740 mmHg 95%

    29 February, Saturday

    Time Temperature Precipitation Wind Pressure Humidity
    00:00 +7°C° 0.4 mm 9 mps 739 mmHg 94%
    01:00 +7°C° 0.6 mm 9 mps 738 mmHg 93%
    02:00 +7°C° 0.6 mm 9 mps 736 mmHg 92%
    03:00 +7°C° 0.6 mm 10 mps 735 mmHg 91%
    04:00 +8°C° 0.8 mm 10 mps 733 mmHg 91%
    05:00 +8°C° 0.8 mm 11 mps 732 mmHg 91%
    06:00 +8°C° 0.8 mm 11 mps 731 mmHg 91%
    07:00 +6°C° 1.7 mm 10 mps 730 mmHg 91%
    08:00 +5°C° 1.7 mm 9 mps 730 mmHg 91%
    09:00 +4°C° 1.7 mm 7 mps 730 mmHg 91%
    10:00 +4°C° 0.2 mm 8 mps 731 mmHg 85%
    11:00 +3°C° 0.2 mm 9 mps 731 mmHg 79%
    12:00 +3°C° 0.2 mm 10 mps 732 mmHg 72%
    13:00 +3°C° 0.2 mm 10 mps 732 mmHg 71%
    14:00 +3°C° 0.2 mm 10 mps 732 mmHg 70%
    15:00 +2°C° 0.2 mm 10 mps 732 mmHg 69%
    16:00 +2°C° 0.1 mm 10 mps 732 mmHg 71%
    17:00 +1°C° 0.1 mm 9 mps 732 mmHg 73%
    18:00 0°C° 0.1 mm 8 mps 731 mmHg 75%
    19:00 0°C° 0 mm 9 mps 732 mmHg 77%
    20:00 0°C° 0 mm 10 mps 732 mmHg 80%
    21:00 0°C° 0 mm 10 mps 732 mmHg 83%
    22:00 0°C° 0 mm 10 mps 732 mmHg 83%
    23:00 0°C° 0 mm 10 mps 732 mmHg 83%

    1 March, Sunday

    Time Temperature Precipitation Wind Pressure Humidity
    00:00 0°C° 0 mm 10 mps 732 mmHg 84%
    01:00 0°C° 0.1 mm 9 mps 732 mmHg 83%
    02:00 0°C° 0.1 mm 9 mps 733 mmHg 83%
    03:00 0°C° 0.1 mm 9 mps 733 mmHg 82%
    04:00 -1°C° 0.2 mm 9 mps 732 mmHg 85%
    05:00 -1°C° 0.2 mm 9 mps 732 mmHg 89%
    06:00 -1°C° 0.2 mm 9 mps 732 mmHg 92%
    07:00 0°C° 0.1 mm 9 mps 732 mmHg 87%
    08:00 +1°C° 0.1 mm 9 mps 732 mmHg 82%
    09:00 +1°C° 0.1 mm 8 mps 732 mmHg 77%
    10:00 +2°C° 0.2 mm 9 mps 732 mmHg 74%
    11:00 +3°C° 0.2 mm 10 mps 732 mmHg 72%
    12:00 +3°C° 0.2 mm 11 mps 731 mmHg 70%
    13:00 +3°C° 0.3 mm 11 mps 731 mmHg 70%
    14:00 +3°C° 0.3 mm 11 mps 731 mmHg 71%
    15:00 +3°C° 0.3 mm 11 mps 731 mmHg 72%
    16:00 +2°C° 0.1 mm 10 mps 730 mmHg 75%
    17:00 +2°C° 0.1 mm 9 mps 730 mmHg 77%
    18:00 +1°C° 0.1 mm 8 mps 730 mmHg 79%
    19:00 +1°C° 0 mm 8 mps 730 mmHg 79%
    20:00 0°C° 0 mm 8 mps 730 mmHg 79%
    21:00 0°C° 0 mm 8 mps 730 mmHg 79%
    22:00 0°C° 0 mm 9 mps 729 mmHg 81%
    23:00 0°C° 0 mm 9 mps 729 mmHg 82%

    2 March, Monday

    Time Temperature Precipitation Wind Pressure Humidity
    00:00 0°C° 0 mm 10 mps 729 mmHg 84%
    01:00 +1°C° 0.4 mm 10 mps 728 mmHg 86%
    02:00 +1°C° 0.4 mm 10 mps 728 mmHg 89%
    03:00 +1°C° 0.4 mm 10 mps 728 mmHg 91%
    04:00 +1°C° 0.8 mm 9 mps 728 mmHg 90%
    05:00 +1°C° 0.8 mm 9 mps 728 mmHg 89%
    06:00 +2°C° 0.8 mm 9 mps 728 mmHg 88%
    07:00 +2°C° 0.1 mm 9 mps 729 mmHg 87%
    08:00 +2°C° 0.1 mm 9 mps 729 mmHg 85%
    09:00 +2°C° 0.1 mm 8 mps 730 mmHg 84%
    10:00 +4°C° 0.1 mm 8 mps 730 mmHg 81%
    11:00 +3°C° 0.1 mm 9 mps 731 mmHg 78%
    12:00 +5°C° 0.1 mm 9 mps 732 mmHg 75%
    13:00 +5°C° 0 mm 8 mps 732 mmHg 74%
    14:00 +5°C° 0 mm 8 mps 733 mmHg 74%
    15:00 +5°C° 0 mm 7 mps 733 mmHg 73%
    16:00 +4°C° 0 mm 7 mps 734 mmHg 75%
    17:00 +3°C° 0 mm 6 mps 734 mmHg 77%
    18:00 +2°C° 0 mm 6 mps 735 mmHg 79%
    19:00 +1°C° 0 mm 6 mps 736 mmHg 80%
    20:00 +1°C° 0 mm 6 mps 737 mmHg 81%
    21:00 -1°C° 0 mm 6 mps 737 mmHg 82%
    22:00 -1°C° 0 mm 6 mps 738 mmHg 79%
    23:00 -1°C° 0 mm 7 mps 739 mmHg 77%
    Show more